Terminal Aerodrome Forecast
Issued by NWS Cleveland, OH

Home | Current Version | Previous Version | Graphics & Text | Print | Product List | Glossary On
Versions: 1 2 3 4 5 6 7 8 9 10 11 12 13 14
000
FTUS41 KCLE 210539
TAFTOL
TAF
KTOL 210539Z 2106/2206 25009KT P6SM BKN025 OVC060
      TEMPO 2106/2109 SCT025
     FM211500 27012G20KT P6SM SCT025 BKN035
     FM212200 27010KT P6SM BKN025 OVC040=

USA.gov is the U.S. government's official web portal to all federal, state and local government web resources and services.